Regional Weather Roundup
Issued by NWS Northern Indiana

Home | Current Version | Previous Version | Graphics & Text | Print | Product List | Glossary On
Versions: 1 2 3 4 5 6 7 8 9 10 11 12 13 14 15 16 17 18 19 20 21 22 23 24 25 26 27 28 29 30 31 32 33 34 35 36 37 38 39 40 41 42 43 44 45 46 47 48 49 50
000
ASUS43 KIWX 252301
RWRIWX

KIWX WEATHER ROUNDUP
NATIONAL WEATHER SERVICE NORTHERN INDIANA
700 PM EDT MON SEP 25 2017

NOTE: "FAIR" INDICATES FEW OR NO CLOUDS BELOW 12,000 FEET WITH NO
SIGNIFICANT WEATHER AND/OR OBSTRUCTIONS TO VISIBILITY.

* THESE STATIONS ARE NOT UNDER NWS QUALITY CONTROL. THEY ALSO MAY NOT
  REPORT WEATHER SUCH AS PRECIPITATION OR FOG.

INZ001>027-260000-
NORTHERN INDIANA

CITY           SKY/WX    TMP DP  RH WIND       PRES   REMARKS
GARY*          PTCLDY    88  46  23 SE10      29.94S
SOUTH BEND     PTCLDY    85  54  34 SE8       29.96F
ELKHART*       PTCLDY    84  57  39 CALM      29.96F
GOSHEN         CLEAR     84  55  36 S5        29.97S
FORT WAYNE     PTCLDY    84  61  45 SE3       29.97F

$$
INZ028>050-260000-
CENTRAL INDIANA

CITY           SKY/WX    TMP DP  RH WIND       PRES   REMARKS
LAFAYETTE      CLEAR     83  61  47 E3        29.93S
KOKOMO*        CLEAR     82  63  52 SE6       29.97F
MUNCIE*        CLEAR     86  58  38 SE7       29.97F
INDIANAPOLIS   PTCLDY    85  58  39 SE7       29.96S

$$
MIZ043>046-050>051-056>058-064>065-071>073-077>080-260000-
SOUTHWEST LOWER MICHIGAN

CITY           SKY/WX    TMP DP  RH WIND       PRES   REMARKS
BATTLE CREEK   CLEAR     85  56  37 S8        29.98S
BENTON HARBOR  PTCLDY    85  57  38 SE3       29.95S
COLDWATER*     CLEAR     84  54  35 CALM      29.98S
HILLSDALE*     CLEAR     82  59  44 CALM      29.99S
HOLLAND        PTCLDY    86  55  34 S5        29.96S
GRAND RAPIDS   MOCLDY    86  54  33 CALM      29.96F
KALAMAZOO      CLEAR     84  52  33 CALM      29.97S
STURGIS*       CLEAR     83  55  38 S5        29.97S
THREE RIVERS*  FAIR      84  54  35 S6        29.97S

$$
OHZ001>008-015>018-024>025-260000-
NORTHWEST OHIO

CITY           SKY/WX    TMP DP  RH WIND       PRES   REMARKS
DEFIANCE       CLEAR     86  59  39 CALM      29.97S
FINDLAY        CLOUDY    86  65  49 CALM      29.97S
TOLEDO EXPRESS PTCLDY    85  65  51 E8        29.97S
TOLEDO METCALF PTCLDY    82  65  56 E5        29.99S
LIMA           PTCLDY    86  63  45 CALM      29.98S

$$
AND FOR LAKE MICHIGAN COASTAL AND OPEN LAKE BUOY OBSERVATIONS

STATION/POSITION TEMP    WIND        PRES    VSBY  WAVE
                 AIR SEA DIR/SP/G                  HT/PER
                 (F)     (DEG/KT/KT) (MB)    (MI)  (FT/S)
CALUMET HARBOR    81      50/  7/ 10 1012.9F
MICHIGAN CITY     86     100/  5/  6   N/A
BURNS HARBOR      79      80/ 10/ 11 1013.9S
SAINT JOSEPH      83      10/  1/  2 1014.6
SOUTH LAKE BUOY   74 71  130/  6/  6 1013.8          1
4 MI NW BRIDGMAN  79 74   40/  4/  4 1013.7F         0
MICHIGAN CITY     78 74   90/  6/  6   N/A           0

$$
&&




USA.gov is the U.S. government's official web portal to all federal, state and local government web resources and services.